Regional Weather Roundup
Issued by NWS

Home | Current Version | Previous Version | Graphics & Text | Print | Product List | Glossary On
Versions: 1 2 3 4 5 6 7 8 9 10 11 12 13 14 15 16 17 18 19 20 21 22 23 24 25 26 27 28 29 30 31 32 33 34 35 36 37 38 39 40 41 42 43 44 45 46 47 48 49 50
000
ASUS45 KBOI 190310
RWRID
WEATHER ROUNDUP FOR IDAHO
NATIONAL WEATHER SERVICE BOISE ID
800 PM MST THU DEC 18 2014

NOTE: "FAIR" INDICATES FEW OR NO CLOUDS BELOW 12000 FEET
WITH NO SIGNIFICANT WEATHER AND/OR OBSTRUCTIONS TO VISIBILITY

IDZ012-014-190400-
SOUTHWEST IDAHO


CITY           SKY/WX    TMP DP  RH WIND       PRES   REMARKS
BOISE          MOCLDY    43  33  68 E9        30.08F
CALDWELL       CLOUDY    43  28  56 E10       30.09R
MOUNTAIN HOME  CLOUDY    40  32  73 E10       30.09F WCI  34
$$

IDZ016-017-190400-
SOUTHCENTRAL IDAHO


CITY           SKY/WX    TMP DP  RH WIND       PRES   REMARKS
BURLEY         CLOUDY    34  28  79 S5        30.12R WCI  30
JEROME         CLOUDY    36  29  75 E8        30.11F WCI  30
TWIN FALLS     CLOUDY    40  28  62 S10       30.11S WCI  33
$$

IDZ019>023-190400-
SOUTHEAST IDAHO


CITY           SKY/WX    TMP DP  RH WIND       PRES   REMARKS
IDAHO FALLS    CLOUDY    27  24  89 N3        30.13S
POCATELLO      CLOUDY    37  29  72 S7        30.14R WCI  32
REXBURG        CLOUDY    31  28  89 CALM      30.13R
$$

IDZ006-010-011-018-031-032-190400-
CENTRAL IDAHO MOUNTAINS


CITY           SKY/WX    TMP DP  RH WIND       PRES   REMARKS
MCCALL         CLOUDY    32  31  96 S3        30.03S
HAILEY         LGT SNOW  32  28  86 CALM      30.12S
STANLEY          N/A     31  24  75 SE3       30.06R
SALMON         MOCLDY    27  21  80 CALM      30.08S
CHALLIS        CLOUDY    26  22  84 CALM      30.08R
$$

IDZ002-004-006-007-026-190400-
NORTHERN IDAHO


CITY           SKY/WX    TMP DP  RH WIND       PRES   REMARKS
LEWISTON       CLOUDY    43  36  76 SE8       29.98S
LOWELL           N/A     37  35  92 CALM      30.06F
COEUR D`ALENE  CLOUDY    37  36  93 N3        29.96S
MULLAN PASS    FOG       30  28  92 VRB7      29.92R VSB 1/2 WCI  23
$$


USA.gov is the U.S. government's official web portal to all federal, state and local government web resources and services.